#�ϑ�����,���ϕ���,���ϕ���,�ő啗��,�ő啗����������,�ő�u�ԕ���,�ő�u�ԕ�����������
#(�N����),(m/s)   ,(16����),(m/s)   ,(16����)        ,(m/s)       ,(16����)            
2015/4/2 0:01,1.9,1,1.9,1,8.2,1
2015/4/2 0:02,2,1,2,1,5.2,16
2015/4/2 0:03,2,1,2,1,2.4,3
2015/4/2 0:04,2,1,2,1,4.3,14
2015/4/2 0:05,2.1,1,2.1,1,5.1,15
2015/4/2 0:06,2.2,1,2.2,1,4.3,1
2015/4/2 0:07,2.1,1,2.2,1,3,3
2015/4/2 0:08,2.3,1,2.3,1,5.7,1
2015/4/2 0:09,2.4,1,2.4,1,6.2,16
2015/4/2 0:10,2.6,1,2.6,1,6.1,16
2015/4/2 0:11,2.6,1,2.7,1,5.2,2
2015/4/2 0:12,2.7,1,2.7,1,6.3,16
2015/4/2 0:13,2.9,1,2.9,1,5.1,16
2015/4/2 0:14,3,1,3,1,4.9,15
2015/4/2 0:15,2.9,1,3,1,4.3,16
2015/4/2 0:16,2.7,16,2.8,1,1.8,16
2015/4/2 0:17,2.7,16,2.7,1,2.7,16
2015/4/2 0:18,2.6,16,2.7,1,3.9,15
2015/4/2 0:19,2.6,16,2.6,1,4.3,16
2015/4/2 0:20,2.5,16,2.6,1,5.8,15
2015/4/2 0:21,2.5,16,2.6,1,4.3,15
2015/4/2 0:22,2.5,16,2.5,1,5.6,16
2015/4/2 0:23,2.6,16,2.6,1,6.5,2
2015/4/2 0:24,2.7,16,2.7,1,6.1,2
2015/4/2 0:25,2.8,16,2.8,16,6.1,1
2015/4/2 0:26,2.8,1,2.8,16,1.9,1
2015/4/2 0:27,2.9,1,2.9,1,3.9,1
2015/4/2 0:28,3.1,1,3.1,1,6.1,2
2015/4/2 0:29,3,1,3.1,1,4.3,15
2015/4/2 0:30,2.8,1,3,1,3.7,16
2015/4/2 0:31,2.9,1,2.9,1,6.1,13
2015/4/2 0:32,3,1,3,1,5.6,15
2015/4/2 0:33,2.9,16,2.9,1,4.7,15
2015/4/2 0:34,2.8,16,2.9,1,4.4,15
2015/4/2 0:35,2.7,16,2.8,1,3.6,15
2015/4/2 0:36,2.8,16,2.8,1,3.7,16
2015/4/2 0:37,2.8,15,2.8,1,4.2,15
2015/4/2 0:38,2.8,15,2.8,1,4.5,15
2015/4/2 0:39,2.6,15,2.8,1,2.9,16
2015/4/2 0:40,2.6,15,2.6,1,2.6,1
2015/4/2 0:41,2.3,16,2.6,1,2.2,1
2015/4/2 0:42,2.2,16,2.3,1,4.2,1
2015/4/2 0:43,2.1,16,2.2,16,3.1,4
2015/4/2 0:44,2,1,2.1,16,2.5,16
2015/4/2 0:45,2,1,2,16,2.5,15
2015/4/2 0:46,2,1,2,16,3.3,15
2015/4/2 0:47,2,1,2,15,4.1,16
2015/4/2 0:48,2,1,2.1,15,4.3,16
2015/4/2 0:49,2.1,1,2.1,15,4.2,1
2015/4/2 0:50,2.2,1,2.2,15,4.1,16
2015/4/2 0:51,2.2,1,2.2,16,3.2,15
2015/4/2 0:52,2.1,1,2.2,16,3.3,1
2015/4/2 0:53,2.1,16,2.1,1,3,16
2015/4/2 0:54,2.1,16,2.1,1,3.7,16
2015/4/2 0:55,2.2,16,2.2,1,4.2,15
2015/4/2 0:56,2.3,1,2.3,1,3.9,16
2015/4/2 0:57,2.2,16,2.3,1,3.8,16
2015/4/2 0:58,2.2,16,2.2,1,5,16
2015/4/2 0:59,2.2,16,2.2,1,4.4,16
2015/4/2 1:00,2.4,16,2.4,16,6.3,15
2015/4/2 1:01,2.5,16,2.5,16,4.1,14
2015/4/2 1:02,2.5,16,2.5,16,3.3,15
2015/4/2 1:03,2.4,16,2.5,16,3.9,16
2015/4/2 1:04,2.3,16,2.4,16,2.4,16
2015/4/2 1:05,2.2,16,2.3,16,2.9,1
2015/4/2 1:06,2.2,16,2.2,16,4.3,16
2015/4/2 1:07,2.2,16,2.2,16,3,16
2015/4/2 1:08,2.1,16,2.2,16,3,16
2015/4/2 1:09,2,16,2.1,16,2.6,16
2015/4/2 1:10,1.7,16,2,16,2.2,16
2015/4/2 1:11,1.6,16,1.7,16,2.1,16
2015/4/2 1:12,1.6,16,1.6,16,1.9,16
2015/4/2 1:13,1.6,1,1.6,16,2.4,2
2015/4/2 1:14,1.7,1,1.7,16,3.2,2
2015/4/2 1:15,1.7,1,1.7,16,3.9,16
2015/4/2 1:16,1.7,1,1.8,16,3.1,16
2015/4/2 1:17,1.8,1,1.8,16,3.3,2
2015/4/2 1:18,1.8,1,1.8,16,3.6,2
2015/4/2 1:19,2,1,2,16,4.9,2
2015/4/2 1:20,2,1,2,1,3.6,2
2015/4/2 1:21,2.1,1,2.1,1,3.7,1
2015/4/2 1:22,2.2,1,2.2,1,4.9,1
2015/4/2 1:23,2.4,1,2.4,1,4.9,1
2015/4/2 1:24,2.6,1,2.6,1,5.8,2
2015/4/2 1:25,2.7,1,2.7,1,4.9,2
2015/4/2 1:26,2.9,2,2.9,2,5.2,1
2015/4/2 1:27,3,2,3,2,4.8,1
2015/4/2 1:28,3.1,2,3.1,2,4.4,1
2015/4/2 1:29,3,1,3.1,2,3.8,1
2015/4/2 1:30,3,1,3,2,3.3,2
2015/4/2 1:31,3,1,3,2,4.5,1
2015/4/2 1:32,3.2,1,3.2,1,5.6,16
2015/4/2 1:33,3,1,3.2,1,4.5,1
2015/4/2 1:34,2.9,1,3,1,6.5,1
2015/4/2 1:35,2.9,1,2.9,1,6.2,1
2015/4/2 1:36,2.9,1,3,1,5.4,2
2015/4/2 1:37,2.9,1,2.9,1,4.4,2
2015/4/2 1:38,2.8,1,2.9,1,3.2,1
2015/4/2 1:39,2.7,1,2.7,1,3.9,2
2015/4/2 1:40,2.7,1,2.7,1,2.9,2
2015/4/2 1:41,2.7,1,2.7,1,3.7,2
2015/4/2 1:42,2.4,1,2.7,1,2.7,2
2015/4/2 1:43,2.4,1,2.4,1,4.4,1
2015/4/2 1:44,2.4,1,2.4,1,5.1,2
2015/4/2 1:45,2.3,1,2.4,1,5.5,1
2015/4/2 1:46,2.2,1,2.3,1,4.7,1
2015/4/2 1:47,2.1,1,2.2,1,3.6,2
2015/4/2 1:48,2.2,1,2.2,1,3.8,2
2015/4/2 1:49,2.2,1,2.2,1,4.1,15
2015/4/2 1:50,2.3,1,2.3,1,4.9,16
2015/4/2 1:51,2.4,1,2.4,1,4.4,16
2015/4/2 1:52,2.6,16,2.6,16,5.5,15
2015/4/2 1:53,2.8,16,2.8,16,5,1
2015/4/2 1:54,2.9,16,2.9,16,4.8,16
2015/4/2 1:55,3.1,16,3.1,16,6.9,16
2015/4/2 1:56,3.2,16,3.2,16,6.4,15
2015/4/2 1:57,3.4,16,3.4,16,6.9,15
2015/4/2 1:58,3.4,16,3.4,16,3.7,16
2015/4/2 1:59,3.6,16,3.6,16,6.2,15
2015/4/2 2:00,3.7,16,3.7,16,6.2,15
2015/4/2 2:01,3.7,16,3.8,16,6.3,15
2015/4/2 2:02,3.7,16,3.7,16,5.1,16
2015/4/2 2:03,3.7,16,3.7,16,4.7,16
2015/4/2 2:04,3.5,16,3.7,16,3.2,1
2015/4/2 2:05,3.4,16,3.5,16,3.8,15
2015/4/2 2:06,3.2,16,3.4,16,3.3,16
2015/4/2 2:07,2.9,16,3.2,16,1.9,1
2015/4/2 2:08,2.9,16,2.9,16,2.6,16
2015/4/2 2:09,2.7,16,2.8,16,3.1,15
2015/4/2 2:10,2.5,16,2.7,16,3.3,16
2015/4/2 2:11,2.4,16,2.5,16,3.2,15
2015/4/2 2:12,2.3,16,2.4,16,3,16
2015/4/2 2:13,2.1,16,2.2,16,2.6,15
2015/4/2 2:14,2.1,16,2.1,16,2.6,16
2015/4/2 2:15,2,16,2.1,16,2.4,16
2015/4/2 2:16,2,16,2,16,3,16
2015/4/2 2:17,2.2,16,2.2,16,4.2,1
2015/4/2 2:18,2.3,16,2.3,16,4.8,1
2015/4/2 2:19,2.3,16,2.3,16,3.6,16
2015/4/2 2:20,2.4,16,2.4,16,5,15
2015/4/2 2:21,2.5,16,2.5,16,4.9,16
2015/4/2 2:22,2.5,16,2.5,16,3.9,1
2015/4/2 2:23,2.5,16,2.5,16,2.6,14
2015/4/2 2:24,2.6,16,2.6,16,3.7,1
2015/4/2 2:25,2.7,16,2.7,16,3.9,16
2015/4/2 2:26,2.8,16,2.8,16,5,16
2015/4/2 2:27,2.6,16,2.8,16,2.9,16
2015/4/2 2:28,2.6,16,2.6,16,6.1,16
2015/4/2 2:29,2.7,16,2.7,16,7.2,16
2015/4/2 2:30,2.7,16,2.8,16,5.5,15
2015/4/2 2:31,2.7,16,2.7,16,5.6,15
2015/4/2 2:32,2.8,16,2.8,16,5.4,15
2015/4/2 2:33,3,16,3,16,4.5,16
2015/4/2 2:34,2.9,16,3,16,3.6,16
2015/4/2 2:35,3,16,3,16,6.3,15
2015/4/2 2:36,2.9,16,3,16,4.4,1
2015/4/2 2:37,3.2,16,3.2,16,7.5,16
2015/4/2 2:38,3.4,16,3.4,16,7.2,16
2015/4/2 2:39,3.3,16,3.5,16,6.1,15
2015/4/2 2:40,3.1,16,3.3,16,3.2,1
2015/4/2 2:41,3,16,3.1,16,3.1,2
2015/4/2 2:42,2.9,16,2.9,16,3.2,15
2015/4/2 2:43,2.8,16,2.8,16,3,15
2015/4/2 2:44,2.7,16,2.8,16,3.2,15
2015/4/2 2:45,2.5,16,2.7,16,2.2,16
2015/4/2 2:46,2.6,16,2.6,16,5.6,16
2015/4/2 2:47,2.7,16,2.7,16,7.4,1
2015/4/2 2:48,2.5,16,2.7,16,6.3,16
2015/4/2 2:49,2.5,16,2.5,16,4.7,1
2015/4/2 2:50,2.7,16,2.7,16,7.9,2
2015/4/2 2:51,2.9,16,2.9,16,7.5,15
2015/4/2 2:52,3.1,16,3.1,16,6.4,16
2015/4/2 2:53,3.2,16,3.2,16,6.7,16
2015/4/2 2:54,3.6,16,3.6,16,9,16
2015/4/2 2:55,3.9,16,3.9,16,9,16
2015/4/2 2:56,4.1,16,4.1,16,9.1,16
2015/4/2 2:57,3.9,16,4.1,16,6.4,14
2015/4/2 2:58,4,16,4,16,6.1,15
2015/4/2 2:59,4,16,4.1,16,6.9,14
2015/4/2 3:00,3.9,16,4,16,4.2,1
2015/4/2 3:01,3.9,16,3.9,16,8.6,15
2015/4/2 3:02,3.9,16,4,16,6.9,16
2015/4/2 3:03,3.8,16,3.9,16,5.4,15
2015/4/2 3:04,3.6,16,3.8,16,7.5,16
2015/4/2 3:05,3.5,16,3.6,16,6.1,16
2015/4/2 3:06,3.4,16,3.5,16,6,15
2015/4/2 3:07,3.6,16,3.6,16,7.4,16
2015/4/2 3:08,3.5,16,3.6,16,6.3,16
2015/4/2 3:09,3.5,16,3.5,16,6.4,15
2015/4/2 3:10,3.6,16,3.6,16,5.4,16
2015/4/2 3:11,3.5,16,3.7,16,6.2,1
2015/4/2 3:12,3.6,16,3.6,16,5.5,16
2015/4/2 3:13,3.8,16,3.8,16,6.4,16
2015/4/2 3:14,3.7,16,3.8,16,4.8,16
2015/4/2 3:15,3.7,16,3.8,16,6.4,14
2015/4/2 3:16,3.4,16,3.7,16,2.4,16
2015/4/2 3:17,3.4,16,3.4,16,7.6,16
2015/4/2 3:18,3.5,16,3.5,16,8.9,15
2015/4/2 3:19,3.8,16,3.8,16,9.1,16
2015/4/2 3:20,3.8,16,3.9,16,6.4,16
2015/4/2 3:21,3.8,16,3.8,16,6.2,16
2015/4/2 3:22,3.9,16,3.9,16,9.1,16
2015/4/2 3:23,3.9,16,4,16,8.6,16
2015/4/2 3:24,4.1,16,4.1,16,7.7,1
2015/4/2 3:25,4,16,4,16,6.2,16
2015/4/2 3:26,4.4,16,4.4,16,8.4,16
2015/4/2 3:27,4.3,16,4.4,16,6.2,16
2015/4/2 3:28,4.1,16,4.2,16,6.8,15
2015/4/2 3:29,3.9,1,4.1,16,4.7,2
2015/4/2 3:30,3.6,1,3.9,16,3.7,2
2015/4/2 3:31,3.5,1,3.6,16,3.2,15
2015/4/2 3:32,3.1,1,3.5,16,2.7,1
2015/4/2 3:33,2.7,1,3.1,16,2.2,1
2015/4/2 3:34,2.4,1,2.7,16,2.4,1
2015/4/2 3:35,2.2,1,2.4,16,2.2,3
2015/4/2 3:36,1.8,1,2.1,16,1.3,1
2015/4/2 3:37,1.5,1,1.8,16,1.3,1
2015/4/2 3:38,1.3,1,1.5,16,1.3,1
2015/4/2 3:39,1.1,1,1.3,1,2,2
2015/4/2 3:40,1,1,1.1,1,1.3,16
2015/4/2 3:41,0.9,1,1,1,1.4,1
2015/4/2 3:42,0.9,1,0.9,1,1.9,2
2015/4/2 3:43,0.9,1,0.9,1,1.1,1
2015/4/2 3:44,0.9,1,0.9,1,1.8,1
2015/4/2 3:45,0.9,1,0.9,1,1.6,2
2015/4/2 3:46,0.9,1,0.9,1,2,1
2015/4/2 3:47,1,1,1,1,1.9,16
2015/4/2 3:48,1,1,1,1,2,1
2015/4/2 3:49,1.1,1,1.1,1,2.1,2
2015/4/2 3:50,1.1,1,1.1,1,2.4,2
2015/4/2 3:51,1.2,1,1.2,1,2,1
2015/4/2 3:52,1.2,1,1.2,1,2,1
2015/4/2 3:53,1.3,1,1.3,1,2.1,2
2015/4/2 3:54,1.3,1,1.3,1,1.6,1
2015/4/2 3:55,1.3,1,1.3,1,1.9,2
2015/4/2 3:56,1.3,1,1.3,1,1.1,2
2015/4/2 3:57,1.2,1,1.3,1,1.1,2
2015/4/2 3:58,1.1,1,1.2,1,0.9,15
2015/4/2 3:59,1.1,1,1.1,1,1.3,16
2015/4/2 4:00,1,1,1.1,1,1.8,15
2015/4/2 4:01,1,16,1,1,2.5,15
2015/4/2 4:02,1,16,1,1,1.9,15
2015/4/2 4:03,1,16,1,1,1.6,15
2015/4/2 4:04,0.9,16,1,1,1.6,15
2015/4/2 4:05,0.9,16,0.9,1,1,4
2015/4/2 4:06,0.9,16,0.9,1,1.6,16
2015/4/2 4:07,1,16,1,1,1.8,16
2015/4/2 4:08,1,16,1,1,1.5,16
2015/4/2 4:09,1.1,16,1.1,1,2,15
2015/4/2 4:10,1.2,16,1.2,16,2.9,16
2015/4/2 4:11,1.3,16,1.3,16,3.3,16
2015/4/2 4:12,1.3,16,1.3,16,3.3,1
2015/4/2 4:13,1.5,16,1.5,16,3.5,16
2015/4/2 4:14,1.6,16,1.6,16,3.1,1
2015/4/2 4:15,1.8,16,1.8,16,3.1,15
2015/4/2 4:16,1.8,16,1.8,16,3.2,16
2015/4/2 4:17,2,16,2,16,3.8,1
2015/4/2 4:18,2.1,16,2.1,16,2.6,16
2015/4/2 4:19,2,16,2.1,16,2.1,16
2015/4/2 4:20,2,16,2,16,2.5,15
2015/4/2 4:21,1.8,16,1.9,16,1.9,15
2015/4/2 4:22,1.6,16,1.8,16,0.6,8
2015/4/2 4:23,1.4,16,1.6,16,1.6,3
2015/4/2 4:24,1.3,16,1.4,16,1.5,3
2015/4/2 4:25,1.1,1,1.3,16,1.4,6
2015/4/2 4:26,1,2,1.1,16,0.4,6
2015/4/2 4:27,0.7,5,1,16,0,7
2015/4/2 4:28,0.6,6,0.7,16,0.3,7
2015/4/2 4:29,0.4,6,0.5,16,0.3,7
2015/4/2 4:30,0.3,7,0.4,16,0.1,7
2015/4/2 4:31,0.3,7,0.3,16,0.9,6
2015/4/2 4:32,0.4,6,0.4,16,1.4,5
2015/4/2 4:33,0.4,6,0.4,16,1.3,5
2015/4/2 4:34,0.5,6,0.5,16,1.3,3
2015/4/2 4:35,0.4,6,0.5,1,0.9,3
2015/4/2 4:36,0.5,6,0.5,3,1.3,15
2015/4/2 4:37,0.7,5,0.7,5,1.9,15
2015/4/2 4:38,0.8,4,0.8,5,2,14
2015/4/2 4:39,0.9,2,0.9,3,1.5,14
2015/4/2 4:40,1,1,1,2,1.4,14
2015/4/2 4:41,1.1,16,1.1,1,1.3,14
2015/4/2 4:42,1.1,15,1.1,1,1.8,15
2015/4/2 4:43,1.1,15,1.1,1,2.1,15
2015/4/2 4:44,1.2,15,1.2,15,2,15
2015/4/2 4:45,1.2,15,1.2,15,1.4,16
2015/4/2 4:46,1.2,15,1.2,15,1.3,1
2015/4/2 4:47,1.1,15,1.2,15,1.1,3
2015/4/2 4:48,1,15,1.1,15,1.4,3
2015/4/2 4:49,1,16,1,15,1,3
2015/4/2 4:50,0.9,1,1,15,0.8,3
2015/4/2 4:51,0.9,1,0.9,15,0.8,16
2015/4/2 4:52,0.8,1,0.9,15,0.8,2
2015/4/2 4:53,0.7,2,0.8,15,1,3
2015/4/2 4:54,0.6,2,0.7,15,0.5,2
2015/4/2 4:55,0.6,2,0.6,15,0.9,16
2015/4/2 4:56,0.6,2,0.6,15,1.4,16
2015/4/2 4:57,0.7,1,0.7,15,1.5,16
2015/4/2 4:58,0.7,1,0.7,15,2,15
2015/4/2 4:59,0.8,1,0.8,16,2,15
2015/4/2 5:00,0.9,16,0.9,1,2,16
2015/4/2 5:01,0.9,16,0.9,1,1.9,15
2015/4/2 5:02,1,16,1,16,2.2,15
2015/4/2 5:03,1.1,15,1.1,16,2.2,15
2015/4/2 5:04,1.3,15,1.3,15,2.4,15
2015/4/2 5:05,1.3,15,1.3,15,1.5,16
2015/4/2 5:06,1.3,15,1.3,15,1.3,15
2015/4/2 5:07,1.2,15,1.3,15,0.6,15
2015/4/2 5:08,1.1,15,1.2,15,0.4,14
2015/4/2 5:09,1,14,1.1,15,0.6,13
2015/4/2 5:10,0.8,14,1,15,0,11
2015/4/2 5:11,0.7,14,0.8,15,0.6,15
2015/4/2 5:12,0.6,14,0.7,15,1,14
2015/4/2 5:13,0.5,14,0.6,15,0.6,16
2015/4/2 5:14,0.4,14,0.5,15,0.9,16
2015/4/2 5:15,0.3,13,0.4,15,0.4,14
2015/4/2 5:16,0.3,13,0.3,15,0.8,15
2015/4/2 5:17,0.3,14,0.3,15,0.9,15
2015/4/2 5:18,0.3,14,0.3,15,0.9,16
2015/4/2 5:19,0.4,14,0.4,14,1.9,15
2015/4/2 5:20,0.6,15,0.6,14,2,15
2015/4/2 5:21,0.7,15,0.7,14,1.9,15
2015/4/2 5:22,0.7,15,0.7,15,2.1,15
2015/4/2 5:23,0.8,15,0.8,15,2.1,15
2015/4/2 5:24,1,15,1,15,3.1,16
2015/4/2 5:25,1,15,1,15,1.6,16
2015/4/2 5:26,1.1,15,1.1,15,1.4,16
2015/4/2 5:27,1.1,15,1.1,15,1.3,15
2015/4/2 5:28,1.1,15,1.1,15,1.6,15
2015/4/2 5:29,1.1,15,1.2,15,1.8,15
2015/4/2 5:30,1.1,15,1.1,15,2.1,16
2015/4/2 5:31,1.1,15,1.1,15,2,15
2015/4/2 5:32,1.1,15,1.1,15,1.5,15
2015/4/2 5:33,1,15,1.1,15,1.3,15
2015/4/2 5:34,1,15,1,15,1.1,15
2015/4/2 5:35,0.9,15,0.9,15,1.1,15
2015/4/2 5:36,0.9,15,0.9,15,0.6,12
2015/4/2 5:37,0.8,14,0.9,15,0.5,12
2015/4/2 5:38,0.7,14,0.8,15,0.4,12
2015/4/2 5:39,0.7,14,0.7,15,0.6,16
2015/4/2 5:40,0.6,14,0.7,15,1,15
2015/4/2 5:41,0.5,14,0.6,15,1,1
2015/4/2 5:42,0.5,14,0.5,15,1.3,1
2015/4/2 5:43,0.5,14,0.5,15,1.9,1
2015/4/2 5:44,0.6,14,0.6,15,1.9,16
2015/4/2 5:45,0.6,15,0.6,15,1.5,15
2015/4/2 5:46,0.7,15,0.7,15,1.4,1
2015/4/2 5:47,0.7,16,0.7,14,1,2
2015/4/2 5:48,0.7,16,0.7,14,1.3,16
2015/4/2 5:49,0.8,16,0.8,16,1.1,16
2015/4/2 5:50,0.7,16,0.8,16,0.5,16
2015/4/2 5:51,0.7,16,0.7,16,0.5,16
2015/4/2 5:52,0.7,16,0.7,16,1.8,16
2015/4/2 5:53,0.7,16,0.7,16,1.5,16
2015/4/2 5:54,0.7,16,0.7,16,2,1
2015/4/2 5:55,0.9,16,0.9,16,2.2,16
2015/4/2 5:56,0.9,16,0.9,16,2,1
2015/4/2 5:57,1,1,1,16,2,1
2015/4/2 5:58,1.2,1,1.2,1,2.5,16
2015/4/2 5:59,1.4,1,1.4,1,2.7,15
2015/4/2 6:00,1.5,1,1.5,1,2.5,15
2015/4/2 6:01,1.7,16,1.7,16,3,16
2015/4/2 6:02,1.8,16,1.8,16,2.9,15
2015/4/2 6:03,1.9,16,1.9,16,2.6,15
2015/4/2 6:04,1.8,16,1.9,16,2,15
2015/4/2 6:05,1.8,16,1.8,16,1.9,15
2015/4/2 6:06,1.8,16,1.8,16,1.9,15
2015/4/2 6:07,1.8,16,1.8,16,2,15
2015/4/2 6:08,1.7,15,1.8,16,1.9,15
2015/4/2 6:09,1.6,15,1.7,16,1.6,16
2015/4/2 6:10,1.5,15,1.6,16,1.9,15
2015/4/2 6:11,1.4,15,1.5,16,1.9,15
2015/4/2 6:12,1.4,15,1.4,16,2.4,16
2015/4/2 6:13,1.4,15,1.4,16,3.1,15
2015/4/2 6:14,1.5,15,1.5,16,2.4,16
2015/4/2 6:15,1.4,15,1.4,16,1.9,15
2015/4/2 6:16,1.4,15,1.4,16,2.4,15
2015/4/2 6:17,1.4,15,1.4,16,1.9,16
2015/4/2 6:18,1.4,15,1.4,15,1.9,16
2015/4/2 6:19,1.3,15,1.3,15,1,16
2015/4/2 6:20,1.2,16,1.3,15,0.9,1
2015/4/2 6:21,1.2,16,1.2,15,1,16
2015/4/2 6:22,1.1,16,1.1,15,0.8,16
2015/4/2 6:23,0.9,16,1.1,15,0.9,2
2015/4/2 6:24,0.8,1,0.9,15,1,2
2015/4/2 6:25,0.8,1,0.8,15,1.5,2
2015/4/2 6:26,0.8,1,0.8,15,1.5,2
2015/4/2 6:27,0.8,1,0.8,15,1.8,2
2015/4/2 6:28,0.8,1,0.8,15,2.1,1
2015/4/2 6:29,1,1,1,15,2,1
2015/4/2 6:30,1.1,1,1.1,16,2.1,16
2015/4/2 6:31,1.2,1,1.2,1,2.2,15
2015/4/2 6:32,1.3,1,1.3,1,1.8,16
2015/4/2 6:33,1.3,1,1.3,1,1.4,16
2015/4/2 6:34,1.3,1,1.3,1,1.3,16
2015/4/2 6:35,1.3,16,1.3,1,1.1,1
2015/4/2 6:36,1.2,16,1.3,1,1.1,16
2015/4/2 6:37,1.2,16,1.2,1,1.1,16
2015/4/2 6:38,1.1,16,1.2,1,0.9,16
2015/4/2 6:39,0.9,16,1.1,1,0.1,16
2015/4/2 6:40,0.8,16,0.9,1,0.3,7
2015/4/2 6:41,0.6,16,0.7,1,0.3,8
2015/4/2 6:42,0.5,1,0.6,1,0.1,8
2015/4/2 6:43,0.4,2,0.5,1,0.5,8
2015/4/2 6:44,0.3,5,0.4,1,0.3,8
2015/4/2 6:45,0.2,7,0.3,16,0.1,8
2015/4/2 6:46,0.2,7,0.2,16,0,8
2015/4/2 6:47,0.1,8,0.2,16,0.1,8
2015/4/2 6:48,0,8,0.1,16,0.1,8
2015/4/2 6:49,0,8,0,16,0,8
2015/4/2 6:50,0,8,0,16,0,8
2015/4/2 6:51,0,8,0,16,0,8
2015/4/2 6:52,0,8,0,1,0.1,8
2015/4/2 6:53,0,8,0,2,0.8,9
2015/4/2 6:54,0.1,8,0.1,5,1,8
2015/4/2 6:55,0.1,8,0.1,7,0.6,7
2015/4/2 6:56,0.2,8,0.2,7,0.6,8
2015/4/2 6:57,0.2,8,0.2,8,0.5,8
2015/4/2 6:58,0.2,8,0.2,8,0.1,10
2015/4/2 6:59,0.2,8,0.2,8,0.1,10
2015/4/2 7:00,0.2,8,0.2,8,0,10
2015/4/2 7:01,0.2,9,0.2,8,0,10
2015/4/2 7:02,0.2,9,0.2,8,0,10
2015/4/2 7:03,0.2,9,0.2,8,0.1,9
2015/4/2 7:04,0.1,9,0.2,8,0.4,7
2015/4/2 7:05,0.1,9,0.1,8,0.5,8
2015/4/2 7:06,0.1,9,0.1,8,0.8,6
2015/4/2 7:07,0.2,9,0.2,8,1,6
2015/4/2 7:08,0.2,8,0.2,8,0.6,6
2015/4/2 7:09,0.3,8,0.3,8,0.6,4
2015/4/2 7:10,0.3,7,0.3,8,0.5,5
2015/4/2 7:11,0.3,7,0.3,8,0.4,4
2015/4/2 7:12,0.3,6,0.3,8,0.1,4
2015/4/2 7:13,0.3,5,0.3,8,0.1,4
2015/4/2 7:14,0.3,5,0.3,8,0.9,7
2015/4/2 7:15,0.4,5,0.4,5,0.8,6
2015/4/2 7:16,0.3,5,0.4,5,0.6,8
2015/4/2 7:17,0.4,6,0.4,5,0.9,10
2015/4/2 7:18,0.4,6,0.4,5,0.9,8
2015/4/2 7:19,0.3,6,0.4,5,0.6,9
2015/4/2 7:20,0.3,7,0.3,5,0.4,8
2015/4/2 7:21,0.3,7,0.3,5,0.8,7
2015/4/2 7:22,0.4,8,0.4,5,0.8,9
2015/4/2 7:23,0.4,8,0.4,5,1,8
2015/4/2 7:24,0.5,8,0.5,8,1.8,8
2015/4/2 7:25,0.6,8,0.6,8,1.9,8
2015/4/2 7:26,0.7,8,0.7,8,1.9,8
2015/4/2 7:27,0.8,8,0.8,8,2,8
2015/4/2 7:28,0.8,8,0.8,8,1.4,7
2015/4/2 7:29,0.8,8,0.8,8,1.5,8
2015/4/2 7:30,1,8,1,8,2,8
2015/4/2 7:31,1,8,1,8,1.9,8
2015/4/2 7:32,1.1,8,1.1,8,1.9,9
2015/4/2 7:33,1.1,9,1.1,8,1.5,9
2015/4/2 7:34,1.1,9,1.1,8,1.9,9
2015/4/2 7:35,1,9,1.1,8,1,9
2015/4/2 7:36,0.9,9,1,8,0.3,10
2015/4/2 7:37,0.8,9,0.9,8,0.9,11
2015/4/2 7:38,0.8,10,0.8,8,0.9,11
2015/4/2 7:39,0.7,10,0.8,8,0.8,12
2015/4/2 7:40,0.6,10,0.7,8,0.8,8
2015/4/2 7:41,0.6,10,0.6,8,2.2,10
2015/4/2 7:42,0.5,10,0.6,8,1.1,13
2015/4/2 7:43,0.5,10,0.5,9,2,9
2015/4/2 7:44,0.6,10,0.6,9,3.2,9
2015/4/2 7:45,0.6,11,0.6,9,1.6,9
2015/4/2 7:46,0.7,10,0.7,9,2.7,9
2015/4/2 7:47,0.8,10,0.8,9,3.1,10
2015/4/2 7:48,1,10,1,10,3.7,10
2015/4/2 7:49,1.3,10,1.3,10,3.9,10
2015/4/2 7:50,1.5,10,1.5,10,3.2,11
2015/4/2 7:51,1.6,10,1.6,10,2.6,10
2015/4/2 7:52,1.7,10,1.7,10,3.2,9
2015/4/2 7:53,1.9,10,1.9,10,4.9,9
2015/4/2 7:54,2,10,2,10,4.8,9
2015/4/2 7:55,2.2,10,2.2,10,3.3,11
2015/4/2 7:56,2.3,10,2.3,10,3.7,8
2015/4/2 7:57,2.4,10,2.4,10,4.5,10
2015/4/2 7:58,2.3,10,2.4,10,3.6,9
2015/4/2 7:59,2.2,10,2.3,10,3,10
2015/4/2 8:00,2.2,10,2.2,10,4.1,9
2015/4/2 8:01,2.2,10,2.2,10,3.1,10
2015/4/2 8:02,2.1,10,2.2,10,2.1,10
2015/4/2 8:03,2,10,2.1,10,3,9
2015/4/2 8:04,1.8,10,2,10,2.2,10
2015/4/2 8:05,1.7,10,1.8,10,3,10
2015/4/2 8:06,1.6,10,1.6,10,3.2,10
2015/4/2 8:07,1.5,10,1.6,10,2.2,9
2015/4/2 8:08,1.4,10,1.5,10,2.9,12
2015/4/2 8:09,1.4,10,1.4,10,3.3,10
2015/4/2 8:10,1.4,10,1.4,10,3.2,10
2015/4/2 8:11,1.4,10,1.4,10,3.5,10
2015/4/2 8:12,1.5,10,1.5,10,3.3,10
2015/4/2 8:13,1.5,10,1.5,10,3.1,9
2015/4/2 8:14,1.7,10,1.7,10,4.1,8
2015/4/2 8:15,1.8,9,1.8,10,3.9,8
2015/4/2 8:16,1.8,9,1.9,9,3.7,8
2015/4/2 8:17,2,9,2,9,4.1,8
2015/4/2 8:18,2.2,9,2.2,9,4.5,9
2015/4/2 8:19,2.3,9,2.3,9,4.7,8
2015/4/2 8:20,2.4,9,2.5,9,5.2,9
2015/4/2 8:21,2.5,9,2.5,9,4.5,10
2015/4/2 8:22,2.6,9,2.6,9,3,9
2015/4/2 8:23,2.5,9,2.6,9,2.2,9
2015/4/2 8:24,2.4,9,2.5,9,3,9
2015/4/2 8:25,2.4,9,2.4,9,3.8,8
2015/4/2 8:26,2.4,9,2.4,9,4.1,9
2015/4/2 8:27,2.2,9,2.4,9,3.3,9
2015/4/2 8:28,2.1,9,2.2,9,4.2,9
2015/4/2 8:29,2,9,2.1,9,3.7,8
2015/4/2 8:30,1.8,9,2,9,2.5,8
2015/4/2 8:31,1.6,9,1.8,9,2.2,9
2015/4/2 8:32,1.5,9,1.6,9,1.9,9
2015/4/2 8:33,1.6,9,1.6,9,3.2,9
2015/4/2 8:34,1.6,9,1.6,9,3.7,9
2015/4/2 8:35,1.6,9,1.6,9,2,9
2015/4/2 8:36,1.4,9,1.5,9,2.1,10
2015/4/2 8:37,1.5,9,1.5,9,2.5,9
2015/4/2 8:38,1.4,10,1.5,9,1.4,7
2015/4/2 8:39,1.2,10,1.4,9,1.4,11
2015/4/2 8:40,1.3,10,1.3,9,3.6,12
2015/4/2 8:41,1.3,10,1.3,9,3.6,12
2015/4/2 8:42,1.5,10,1.5,9,4.1,11
2015/4/2 8:43,1.4,10,1.5,9,2,9
2015/4/2 8:44,1.3,10,1.4,9,2.1,11
2015/4/2 8:45,1.4,11,1.4,9,2,10
2015/4/2 8:46,1.5,11,1.5,9,3.9,9
2015/4/2 8:47,1.5,11,1.5,9,3.1,11
2015/4/2 8:48,1.6,11,1.6,11,4.4,9
2015/4/2 8:49,1.7,11,1.7,11,2.9,10
2015/4/2 8:50,1.9,11,1.9,11,4.2,10
2015/4/2 8:51,1.9,11,2,11,4.4,11
2015/4/2 8:52,1.9,11,1.9,11,3.3,9
2015/4/2 8:53,1.9,11,1.9,11,2.2,9
2015/4/2 8:54,1.9,10,2,11,4.3,9
2015/4/2 8:55,2.1,10,2.1,10,4.8,9
2015/4/2 8:56,2.1,10,2.1,10,4.2,8
2015/4/2 8:57,2.1,10,2.1,10,3.8,8
2015/4/2 8:58,2,10,2.1,10,3.8,9
2015/4/2 8:59,2.1,9,2.1,10,3.8,8
2015/4/2 9:00,1.9,9,2.1,10,3.7,8
2015/4/2 9:01,1.9,9,1.9,10,3.8,9
2015/4/2 9:02,2,9,2,10,4.5,8
2015/4/2 9:03,1.9,8,2,10,3,9
2015/4/2 9:04,2,8,2,10,4.2,8
2015/4/2 9:05,2,8,2.1,10,3.6,7
2015/4/2 9:06,1.8,8,2,10,1.3,10
2015/4/2 9:07,1.7,8,1.8,10,1.9,7
2015/4/2 9:08,1.8,8,1.8,9,3.8,8
2015/4/2 9:09,1.7,8,1.8,9,4.1,10
2015/4/2 9:10,1.8,8,1.8,8,4.1,9
2015/4/2 9:11,1.8,8,1.8,8,4.7,11
2015/4/2 9:12,1.7,9,1.8,8,3,8
2015/4/2 9:13,1.7,9,1.8,8,2,14
2015/4/2 9:14,1.5,10,1.7,8,1.1,8
2015/4/2 9:15,1.4,9,1.5,8,2.2,6
2015/4/2 9:16,1.5,9,1.5,8,2.2,8
2015/4/2 9:17,1.5,9,1.5,8,2.6,9
2015/4/2 9:18,1.5,9,1.5,8,2.2,7
2015/4/2 9:19,1.6,9,1.6,8,3.5,7
2015/4/2 9:20,1.4,9,1.5,8,2.5,8
2015/4/2 9:21,1.3,8,1.4,8,1.6,9
2015/4/2 9:22,1.2,8,1.2,9,2.1,13
2015/4/2 9:23,1.2,8,1.2,9,1.5,9
2015/4/2 9:24,1.2,8,1.2,9,1.6,9
2015/4/2 9:25,1.2,9,1.2,9,2,10
2015/4/2 9:26,1.1,9,1.2,9,1.3,7
2015/4/2 9:27,1.2,9,1.2,9,3.6,8
2015/4/2 9:28,1.3,9,1.3,9,3.6,8
2015/4/2 9:29,1.2,10,1.3,9,3,8
2015/4/2 9:30,1.2,10,1.2,8,2.1,8
2015/4/2 9:31,1.2,10,1.2,9,1.9,9
2015/4/2 9:32,1.3,10,1.3,9,2.9,5
2015/4/2 9:33,1.3,9,1.3,9,2.5,6
2015/4/2 9:34,1.4,8,1.4,9,1.9,5
2015/4/2 9:35,1.4,8,1.4,9,2,10
2015/4/2 9:36,1.3,8,1.3,9,1,6
2015/4/2 9:37,1.2,8,1.3,9,1,5
2015/4/2 9:38,1.1,7,1.2,9,1.3,4
2015/4/2 9:39,1,7,1,9,1.4,10
2015/4/2 9:40,0.9,7,1,9,1.1,8
2015/4/2 9:41,0.9,7,0.9,9,2,8
2015/4/2 9:42,0.9,7,0.9,9,3.5,8
2015/4/2 9:43,0.9,7,0.9,9,2.4,7
2015/4/2 9:44,1,7,1,8,2.9,8
2015/4/2 9:45,1,7,1,8,2.5,9
2015/4/2 9:46,1,7,1,8,0.9,8
2015/4/2 9:47,1.1,8,1.1,7,2.9,10
2015/4/2 9:48,1.2,8,1.2,8,2.5,6
2015/4/2 9:49,1.3,8,1.3,8,2.6,10
2015/4/2 9:50,1.4,8,1.4,8,2.6,10
2015/4/2 9:51,1.5,8,1.5,8,3.7,8
2015/4/2 9:52,1.5,8,1.5,8,4.1,7
2015/4/2 9:53,1.6,8,1.6,8,2.6,4
2015/4/2 9:54,1.6,7,1.6,8,2.6,4
2015/4/2 9:55,1.6,6,1.6,8,2.2,4
2015/4/2 9:56,1.6,6,1.6,8,1.4,11
2015/4/2 9:57,1.5,6,1.6,8,1.5,10
2015/4/2 9:58,1.4,6,1.5,8,1.3,10
2015/4/2 9:59,1.4,6,1.4,8,3,8
2015/4/2 10:00,1.4,6,1.4,8,2.4,8
2015/4/2 10:01,1.3,6,1.4,8,2.7,8
2015/4/2 10:02,1.2,6,1.3,8,3.1,7
2015/4/2 10:03,1.1,6,1.2,8,2.6,8
2015/4/2 10:04,1.1,6,1.1,7,2.9,4
2015/4/2 10:05,1.1,7,1.1,6,3.6,8
2015/4/2 10:06,1.2,7,1.2,6,3.7,8
2015/4/2 10:07,1.4,7,1.4,6,4.5,8
2015/4/2 10:08,1.5,7,1.5,7,3.6,7
2015/4/2 10:09,1.6,7,1.6,7,4.5,7
2015/4/2 10:10,1.8,7,1.8,7,3.7,7
2015/4/2 10:11,1.9,7,1.9,7,3.8,8
2015/4/2 10:12,1.9,7,2,7,3.1,8
2015/4/2 10:13,1.9,7,1.9,7,1.6,10
2015/4/2 10:14,1.8,8,1.9,7,0.9,9
2015/4/2 10:15,1.7,8,1.8,7,0.9,4
2015/4/2 10:16,1.7,7,1.7,7,1.9,8
2015/4/2 10:17,1.5,7,1.6,7,2,13
2015/4/2 10:18,1.5,8,1.5,7,3.5,10
2015/4/2 10:19,1.3,8,1.5,7,2.9,9
2015/4/2 10:20,1.2,8,1.3,7,4.9,9
2015/4/2 10:21,1.3,9,1.3,7,3.9,8
2015/4/2 10:22,1.1,9,1.2,7,1.9,11
2015/4/2 10:23,1.2,9,1.2,7,4.1,9
2015/4/2 10:24,1.4,9,1.4,8,4.1,9
2015/4/2 10:25,1.5,9,1.6,8,3.9,8
2015/4/2 10:26,1.5,9,1.5,7,1.4,5
2015/4/2 10:27,1.5,9,1.5,9,2.5,10
2015/4/2 10:28,1.5,9,1.5,9,3.7,10
2015/4/2 10:29,1.5,9,1.5,9,3.2,8
2015/4/2 10:30,1.4,9,1.5,9,3.1,8
2015/4/2 10:31,1.3,9,1.4,9,3,9
2015/4/2 10:32,1.4,9,1.4,9,3.1,8
2015/4/2 10:33,1.4,9,1.4,9,3.7,8
2015/4/2 10:34,1.5,9,1.5,9,4.7,9
2015/4/2 10:35,1.5,9,1.5,9,4.4,9
2015/4/2 10:36,1.6,9,1.6,9,3.2,9
2015/4/2 10:37,1.7,9,1.7,9,3.3,9
2015/4/2 10:38,1.8,9,1.8,9,3.5,9
2015/4/2 10:39,2,9,2,9,5.5,8
2015/4/2 10:40,2.1,9,2.1,9,4.2,8
2015/4/2 10:41,2.3,9,2.3,9,5.6,8
2015/4/2 10:42,2.5,9,2.5,9,5.1,8
2015/4/2 10:43,2.6,9,2.6,9,4.9,9
2015/4/2 10:44,2.5,8,2.6,9,5.7,8
2015/4/2 10:45,2.6,8,2.6,9,5.1,8
2015/4/2 10:46,2.9,8,2.9,8,4.8,8
2015/4/2 10:47,3,8,3,8,5.1,8
2015/4/2 10:48,3,8,3,8,4.2,8
2015/4/2 10:49,2.9,8,3,8,4.3,8
2015/4/2 10:50,3,8,3,8,4.1,7
2015/4/2 10:51,2.9,8,3,8,3.1,7
2015/4/2 10:52,2.6,7,2.8,8,1.9,6
2015/4/2 10:53,2.4,7,2.6,8,1.5,1
2015/4/2 10:54,2.2,7,2.4,8,2.2,7
2015/4/2 10:55,2.2,7,2.2,8,3.9,7
2015/4/2 10:56,2,7,2.2,8,2.6,6
2015/4/2 10:57,1.9,7,2,8,3.1,8
2015/4/2 10:58,1.7,7,1.8,8,2.2,7
2015/4/2 10:59,1.6,7,1.7,8,4.3,9
2015/4/2 11:00,1.6,7,1.6,8,4.2,7
2015/4/2 11:01,1.7,7,1.7,8,4.5,6
2015/4/2 11:02,1.8,6,1.8,7,5,5
2015/4/2 11:03,2.1,6,2.1,7,4.7,3
2015/4/2 11:04,2.3,6,2.3,6,4.2,4
2015/4/2 11:05,2.2,6,2.3,6,3.3,6
2015/4/2 11:06,2.2,5,2.2,6,3.2,6
2015/4/2 11:07,2.2,5,2.3,6,3.7,5
2015/4/2 11:08,2.2,5,2.2,6,1.3,4
2015/4/2 11:09,2.1,5,2.2,6,1.4,5
2015/4/2 11:10,2,5,2.1,6,1.3,8
2015/4/2 11:11,1.7,5,1.9,6,0.8,4
2015/4/2 11:12,1.5,5,1.7,6,1.6,10
2015/4/2 11:13,1.3,6,1.5,6,3.6,8
2015/4/2 11:14,1.3,6,1.3,6,4.3,9
2015/4/2 11:15,1.5,7,1.5,5,6.2,8
2015/4/2 11:16,1.5,7,1.5,5,4.7,7
2015/4/2 11:17,1.4,7,1.5,5,2.5,7
2015/4/2 11:18,1.4,8,1.4,5,2.6,9
2015/4/2 11:19,1.4,8,1.4,5,2.9,7
2015/4/2 11:20,1.7,8,1.7,5,5.1,7
2015/4/2 11:21,1.9,8,1.9,8,3.9,6
2015/4/2 11:22,2,8,2,8,4.4,8
2015/4/2 11:23,2.1,7,2.1,8,4.1,8
2015/4/2 11:24,2.1,7,2.2,7,4.3,8
2015/4/2 11:25,2,7,2.1,7,3.9,7
2015/4/2 11:26,2.1,7,2.1,7,4.2,7
2015/4/2 11:27,2.3,7,2.3,7,3.5,6
2015/4/2 11:28,2.5,7,2.5,7,5.1,4
2015/4/2 11:29,2.7,7,2.7,7,4.3,4
2015/4/2 11:30,2.7,6,2.7,7,5.4,4
2015/4/2 11:31,2.8,6,2.8,6,3.6,4
2015/4/2 11:32,2.8,6,2.8,6,2.9,4
2015/4/2 11:33,2.7,5,2.7,6,2.5,4
2015/4/2 11:34,2.8,5,2.8,6,6.9,5
2015/4/2 11:35,2.9,5,2.9,5,5.7,7
2015/4/2 11:36,3,5,3,5,6.5,7
2015/4/2 11:37,3,5,3,5,5.4,8
2015/4/2 11:38,3.1,5,3.1,5,6,6
2015/4/2 11:39,3.1,5,3.1,5,5.4,5
2015/4/2 11:40,3.1,5,3.1,5,5,5
2015/4/2 11:41,3,5,3.1,5,5.4,6
2015/4/2 11:42,3,5,3,5,3.6,6
2015/4/2 11:43,3.2,6,3.2,6,5.1,7
2015/4/2 11:44,3.2,6,3.2,6,5.6,8
2015/4/2 11:45,3.1,6,3.2,6,4.7,8